User: anonymous   Login
Location: Campillo
(40.8621°N, 4.2488°W)
Time: 23:34:45
(UTC+00:00)
Language:

Cosmos 1340 Rocket - Orbit

View from above orbital plane
View from above orbital plane
View from above satellite
View from above satellite

Ground track
Ground track

The orbit data is extracted from the following two-line orbital elements,

1 13068U 82013B   21204.58744096  .00000866  00000-0  54932-4 0  9991
2 13068  81.2059 312.0211 0021834  51.4221 308.8954 15.07684229148800
Epoch (UTC): 23 July 2021 14:05:54
Eccentricity: 0.0021834
inclination: 81.2059°
perigee height: 528 km
apogee height: 558 km
right ascension of ascending node: 312.0211°
argument of perigee: 51.4221°
revolutions per day: 15.07684229
mean anomaly at epoch: 308.8954°
orbit number at epoch: 14880

The dashed part of the orbit path shows where the satellite is in the earth's shadow,  

DLR